,,Stat6,,Stat2,,Stat8,,Stat9,,Stat10,,Wind1,,Wind1,
time,status,PA1M_AVG,status,PR1M_SUM,status,RH1M_AVG,status,SR1M_AVG,status,TA1M_AVG,status,W1dAve1m,status,W1sAve1m,
2009-05-14, 00:00:00,VALID,915.552,VALID,0,VALID,100,VALID,-0.0679233,VALID,19.145,VALID,29,VALID,0.707217,
2009-05-14, 00:01:00,VALID,915.534,VALID,0,VALID,100,VALID,-0.101885,VALID,19.1654,VALID,44,VALID,1.19459,
2009-05-14, 00:02:00,VALID,915.53,VALID,0,VALID,100,VALID,-0.101885,VALID,19.1587,VALID,16,VALID,0.88956,
2009-05-14, 00:03:00,VALID,915.533,VALID,0,VALID,100,VALID,-0.101885,VALID,19.1784,VALID,25,VALID,0.395089,
2009-05-14, 00:04:00,VALID,915.536,VALID,0,VALID,100,VALID,-0.0679233,VALID,19.1814,VALID,26,VALID,0,
2009-05-14, 00:05:00,VALID,915.536,VALID,0,VALID,100,VALID,-0.0849042,VALID,19.1749,VALID,26,VALID,0,
2009-05-14, 00:06:00,VALID,915.543,VALID,0,VALID,100,VALID,-0.101885,VALID,19.1787,VALID,14,VALID,0.35831,
2009-05-14, 00:07:00,VALID,915.538,VALID,0,VALID,100,VALID,-0.0849042,VALID,19.1395,VALID,4,VALID,0.501243,
2009-05-14, 00:08:00,VALID,915.528,VALID,0,VALID,100,VALID,-0.101885,VALID,19.133,VALID,360,VALID,0.445668,
2009-05-14, 00:09:00,VALID,915.527,VALID,0,VALID,100,VALID,-0.101885,VALID,19.12,VALID,355,VALID,0.265262,
2009-05-14, 00:10:00,VALID,915.527,VALID,0,VALID,100,VALID,-0.118866,VALID,19.1003,VALID,359,VALID,0.486049,
2009-05-14, 00:11:00,VALID,915.507,VALID,0,VALID,100,VALID,-0.101885,VALID,19.1036,VALID,15,VALID,0.784624,
2009-05-14, 00:12:00,VALID,915.499,VALID,0,VALID,100,VALID,-0.0679233,VALID,19.107,VALID,9,VALID,0.646723,
2009-05-14, 00:13:00,VALID,915.49,VALID,0,VALID,100,VALID,-0.101885,VALID,19.0966,VALID,9,VALID,0.0295759,
2009-05-14, 00:14:00,VALID,915.484,VALID,0,VALID,100,VALID,-0.0849042,VALID,19.1133,VALID,9,VALID,0,
2009-05-14, 00:15:00,VALID,915.487,VALID,0,VALID,100,VALID,-0.101885,VALID,19.123,VALID,358,VALID,0.342115,
2009-05-14, 00:16:00,VALID,915.493,VALID,0,VALID,100,VALID,-0.0849042,VALID,19.1165,VALID,345,VALID,0.0226753,
2009-05-14, 00:17:00,VALID,915.483,VALID,0,VALID,100,VALID,-0.101885,VALID,19.1263,VALID,345,VALID,0,
2009-05-14, 00:18:00,VALID,915.472,VALID,0,VALID,100,VALID,-0.101885,VALID,19.133,VALID,345,VALID,0,
2009-05-14, 00:19:00,VALID,915.456,VALID,0,VALID,100,VALID,-0.118866,VALID,19.1525,VALID,349,VALID,0,
2009-05-14, 00:20:00,VALID,915.436,VALID,0,VALID,100,VALID,-0.0849042,VALID,19.1522,VALID,12,VALID,0.828697,
2009-05-14, 00:21:00,VALID,915.425,VALID,0,VALID,100,VALID,-0.101885,VALID,19.1654,VALID,12,VALID,0.728338,
2009-05-14, 00:22:00,VALID,915.382,VALID,0,VALID,100,VALID,-0.118866,VALID,19.159,VALID,19,VALID,0.870617,
2009-05-14, 00:23:00,VALID,915.362,VALID,0,VALID,100,VALID,-0.118866,VALID,19.1427,VALID,15,VALID,1.11662,
2009-05-14, 00:24:00,VALID,915.338,VALID,0,VALID,100,VALID,-0.101885,VALID,19.1133,VALID,16,VALID,1.26308,
2009-05-14, 00:25:00,VALID,915.308,VALID,0,VALID,100,VALID,-0.101885,VALID,19.1003,VALID,15,VALID,1.15298,
2009-05-14, 00:26:00,VALID,915.276,VALID,0,VALID,100,VALID,-0.101885,VALID,19.0976,VALID,24,VALID,0.997049,
2009-05-14, 00:27:00,VALID,915.24,VALID,0,VALID,100,VALID,-0.152827,VALID,19.0876,VALID,16,VALID,1.09948,
2009-05-14, 00:28:00,VALID,915.213,VALID,0,VALID,100,VALID,-0.118866,VALID,19.0876,VALID,336,VALID,0.71968,
2009-05-14, 00:29:00,VALID,915.188,VALID,0,VALID,100,VALID,-0.135847,VALID,19.0714,VALID,333,VALID,0.0174006,
2009-05-14, 00:30:00,VALID,915.15,VALID,0,VALID,100,VALID,-0.101885,VALID,19.0581,VALID,347,VALID,0.536058,
2009-05-14, 00:31:00,VALID,915.12,VALID,0,VALID,100,VALID,-0.101885,VALID,19.0584,VALID,5,VALID,0.909028,
2009-05-14, 00:32:00,VALID,915.089,VALID,0,VALID,100,VALID,-0.118866,VALID,19.0584,VALID,355,VALID,1.02717,
2009-05-14, 00:33:00,VALID,915.04,VALID,0,VALID,100,VALID,-0.101885,VALID,19.0649,VALID,17,VALID,0.390253,
2009-05-14, 00:34:00,VALID,915.019,VALID,0,VALID,100,VALID,-0.101885,VALID,19.0779,VALID,17,VALID,0.498183,
2009-05-14, 00:35:00,VALID,914.999,VALID,0,VALID,100,VALID,-0.101885,VALID,19.0809,VALID,10,VALID,0.770894,
2009-05-14, 00:36:00,VALID,914.959,VALID,0,VALID,100,VALID,-0.118866,VALID,19.0779,VALID,1,VALID,0.492188,
2009-05-14, 00:37:00,VALID,914.932,VALID,0,VALID,100,VALID,-0.0849042,VALID,19.0681,VALID,6,VALID,0.636265,
2009-05-14, 00:38:00,VALID,914.874,VALID,0,VALID,100,VALID,-0.101885,VALID,19.0584,VALID,34,VALID,0.854688,
2009-05-14, 00:39:00,VALID,914.856,VALID,0,VALID,100,VALID,-0.0509425,VALID,19.032,VALID,27,VALID,1.0261,
2009-05-14, 00:40:00,VALID,914.813,VALID,0,VALID,100,VALID,-0.0849042,VALID,19.0352,VALID,32,VALID,1.09783,
2009-05-14, 00:41:00,VALID,914.804,VALID,0,VALID,100,VALID,-0.0509425,VALID,19.0542,VALID,30,VALID,0.388393,
2009-05-14, 00:42:00,VALID,914.784,VALID,0,VALID,100,VALID,-0.101885,VALID,19.0614,VALID,2,VALID,0,
2009-05-14, 00:43:00,VALID,914.735,VALID,0,VALID,100,VALID,-0.101885,VALID,19.0549,VALID,356,VALID,0,
2009-05-14, 00:44:00,VALID,914.721,VALID,0,VALID,100,VALID,-0.0849042,VALID,19.0614,VALID,356,VALID,0,
2009-05-14, 00:45:00,VALID,914.723,VALID,0,VALID,100,VALID,-0.0849042,VALID,19.0706,VALID,356,VALID,0,
2009-05-14, 00:46:00,VALID,914.717,VALID,0,VALID,100,VALID,-0.0679233,VALID,19.0873,VALID,356,VALID,0,
2009-05-14, 00:47:00,VALID,914.711,VALID,0,VALID,100,VALID,-0.0849042,VALID,19.0998,VALID,356,VALID,0,
2009-05-14, 00:48:00,VALID,914.697,VALID,0,VALID,100,VALID,-0.0849042,VALID,19.0739,VALID,356,VALID,0,
2009-05-14, 00:49:00,VALID,914.694,VALID,0,VALID,100,VALID,-0.0339617,VALID,19.0873,VALID,356,VALID,0,
2009-05-14, 00:50:00,VALID,914.676,VALID,0,VALID,100,VALID,-0.0509425,VALID,19.0839,VALID,32,VALID,0.827778,
2009-05-14, 00:51:00,VALID,914.634,VALID,0,VALID,100,VALID,-0.0679233,VALID,19.0574,VALID,50,VALID,1.21348,
2009-05-14, 00:52:00,VALID,914.613,VALID,0,VALID,100,VALID,-0.0849042,VALID,19.0776,VALID,48,VALID,0.931996,
2009-05-14, 00:53:00,VALID,914.599,VALID,0,VALID,100,VALID,-0.0679233,VALID,19.0876,VALID,46,VALID,0.755609,
2009-05-14, 00:54:00,VALID,914.583,VALID,0,VALID,100,VALID,-0.0339617,VALID,19.0741,VALID,47,VALID,0.85332,
2009-05-14, 00:55:00,VALID,914.552,VALID,0,VALID,100,VALID,-0.0849042,VALID,19.0779,VALID,47,VALID,0.342297,
2009-05-14, 00:56:00,VALID,914.525,VALID,0,VALID,100,VALID,-0.0849042,VALID,19.0776,VALID,50,VALID,0,
2009-05-14, 00:57:00,VALID,914.499,VALID,0,VALID,100,VALID,-0.0849042,VALID,19.0579,VALID,41,VALID,0,
2009-05-14, 00:58:00,VALID,914.497,VALID,0,VALID,100,VALID,-0.0679233,VALID,19.0574,VALID,41,VALID,0,
2009-05-14, 00:59:00,VALID,914.477,VALID,0,VALID,100,VALID,-0.101885,VALID,19.0614,VALID,41,VALID,0,
2009-05-14, 01:00:00,VALID,914.456,VALID,0,VALID,100,VALID,-0.0509425,VALID,19.0514,VALID,39,VALID,0.397236,
2009-05-14, 01:01:00,VALID,914.43,VALID,0,VALID,100,VALID,-0.0849042,VALID,19.0607,VALID,9,VALID,0.100109,
2009-05-14, 01:02:00,VALID,914.372,VALID,0,VALID,100,VALID,-0.0509425,VALID,19.0637,VALID,2,VALID,0,
2009-05-14, 01:03:00,VALID,914.34,VALID,0,VALID,100,VALID,-0.0679233,VALID,19.0574,VALID,2,VALID,0,
2009-05-14, 01:04:00,VALID,914.294,VALID,0,VALID,100,VALID,-0.0679233,VALID,19.0514,VALID,56,VALID,0.305259,
2009-05-14, 01:05:00,VALID,914.284,VALID,0,VALID,100,VALID,-0.0509425,VALID,19.0672,VALID,60,VALID,0,
2009-05-14, 01:06:00,VALID,914.279,VALID,0,VALID,100,VALID,-0.0679233,VALID,19.0679,VALID,60,VALID,0,
2009-05-14, 01:07:00,VALID,914.26,VALID,0,VALID,100,VALID,-0.0679233,VALID,19.0442,VALID,60,VALID,0,
2009-05-14, 01:08:00,VALID,914.222,VALID,0,VALID,100,VALID,-0.0679233,VALID,19.0417,VALID,61,VALID,0.161272,
2009-05-14, 01:09:00,VALID,914.194,VALID,0,VALID,100,VALID,-0.101885,VALID,19.0157,VALID,72,VALID,0.813244,
2009-05-14, 01:10:00,VALID,914.198,VALID,0,VALID,100,VALID,-0.0169808,VALID,19.0062,VALID,118,VALID,0.719477,
2009-05-14, 01:11:00,VALID,914.188,VALID,0,VALID,100,VALID,-0.0339617,VALID,19.0122,VALID,120,VALID,0.428544,
2009-05-14, 01:12:00,VALID,914.157,VALID,0,VALID,100,VALID,-0.0679233,VALID,18.9988,VALID,121,VALID,0.559775,
2009-05-14, 01:13:00,VALID,914.147,VALID,0,VALID,100,VALID,-0.0849042,VALID,19.0222,VALID,121,VALID,0.315739,
2009-05-14, 01:14:00,VALID,914.144,VALID,0,VALID,100,VALID,-0.0509425,VALID,19.0215,VALID,175,VALID,0,
2009-05-14, 01:15:00,VALID,914.136,VALID,0,VALID,100,VALID,-0.0339617,VALID,19.0322,VALID,181,VALID,0.00121528,
2009-05-14, 01:16:00,VALID,914.112,VALID,0,VALID,100,VALID,-0.0339617,VALID,19.0183,VALID,181,VALID,0,
2009-05-14, 01:17:00,VALID,914.086,VALID,0,VALID,100,VALID,-0.0509425,VALID,19.015,VALID,181,VALID,0,
2009-05-14, 01:18:00,VALID,914.073,VALID,0,VALID,100,VALID,-0.0509425,VALID,19.025,VALID,181,VALID,0,
2009-05-14, 01:19:00,VALID,914.042,VALID,0,VALID,100,VALID,-0.0509425,VALID,19.0542,VALID,181,VALID,0,
2009-05-14, 01:20:00,VALID,914.027,VALID,0,VALID,100,VALID,-0.0509425,VALID,19.0604,VALID,182,VALID,0.131288,
2009-05-14, 01:21:00,VALID,914.019,VALID,0,VALID,100,VALID,-0.0679233,VALID,19.0607,VALID,183,VALID,0.0542969,
2009-05-14, 01:22:00,VALID,914,VALID,0,VALID,100,VALID,-0.0339617,VALID,19.0869,VALID,214,VALID,0.426417,
2009-05-14, 01:23:00,VALID,913.977,VALID,0,VALID,100,VALID,-0.0169808,VALID,19.0801,VALID,228,VALID,0.601563,
2009-05-14, 01:24:00,VALID,913.94,VALID,0,VALID,100,VALID,-0.0679233,VALID,19.1163,VALID,215,VALID,0.00621449,
2009-05-14, 01:25:00,VALID,913.91,VALID,0,VALID,100,VALID,-0.0679233,VALID,19.1385,VALID,236,VALID,0.523247,
2009-05-14, 01:26:00,VALID,913.867,VALID,0,VALID,100,VALID,-0.0509425,VALID,19.1448,VALID,271,VALID,0.547637,
2009-05-14, 01:27:00,VALID,913.82,VALID,0,VALID,100,VALID,-0.0339617,VALID,19.1842,VALID,202,VALID,0.438502,
2009-05-14, 01:28:00,VALID,913.774,VALID,0,VALID,100,VALID,-0.0169808,VALID,19.1775,VALID,174,VALID,0.470353,
2009-05-14, 01:29:00,VALID,913.738,VALID,0,VALID,100,VALID,-0.0679233,VALID,19.1353,VALID,192,VALID,1.40469,
2009-05-14, 01:30:00,VALID,913.704,VALID,0,VALID,100,VALID,-0.0849042,VALID,19.1388,VALID,199,VALID,1.37553,
2009-05-14, 01:31:00,VALID,913.694,VALID,0,VALID,100,VALID,-0.0509425,VALID,19.1293,VALID,206,VALID,1.27046,
2009-05-14, 01:32:00,VALID,913.673,VALID,0,VALID,100,VALID,-0.0849042,VALID,19.1123,VALID,222,VALID,0.703125,
2009-05-14, 01:33:00,VALID,913.647,VALID,0,VALID,100,VALID,-0.0509425,VALID,19.1031,VALID,235,VALID,0.973133,
2009-05-14, 01:34:00,VALID,913.63,VALID,0,VALID,100,VALID,-0.0679233,VALID,19.1063,VALID,257,VALID,1.42533,
2009-05-14, 01:35:00,VALID,913.617,VALID,0,VALID,100,VALID,-0.0509425,VALID,19.1225,VALID,224,VALID,0.815358,
2009-05-14, 01:36:00,VALID,913.58,VALID,0,VALID,100,VALID,-0.0679233,VALID,19.145,VALID,235,VALID,0.837462,
2009-05-14, 01:37:00,VALID,913.566,VALID,0,VALID,100,VALID,-0.0339617,VALID,19.1552,VALID,253,VALID,0.431538,
2009-05-14, 01:38:00,VALID,913.542,VALID,0,VALID,100,VALID,-0.101885,VALID,19.1617,VALID,247,VALID,0,
2009-05-14, 01:39:00,VALID,913.495,VALID,0,VALID,100,VALID,-0.0169808,VALID,19.1575,VALID,242,VALID,0.628729,
2009-05-14, 01:40:00,VALID,913.462,VALID,0,VALID,100,VALID,-0.0339617,VALID,19.1473,VALID,232,VALID,0.548177,
2009-05-14, 01:41:00,VALID,913.452,VALID,0,VALID,100,VALID,0,VALID,19.1403,VALID,221,VALID,0.605769,
2009-05-14, 01:42:00,VALID,913.415,VALID,0,VALID,100,VALID,0,VALID,19.1278,VALID,222,VALID,0.841146,
2009-05-14, 01:43:00,VALID,913.395,VALID,0,VALID,100,VALID,0,VALID,19.1116,VALID,235,VALID,0.678622,
2009-05-14, 01:44:00,VALID,913.389,VALID,0,VALID,100,VALID,0,VALID,19.0917,VALID,224,VALID,0.740327,
2009-05-14, 01:45:00,VALID,913.36,VALID,0,VALID,100,VALID,0,VALID,19.0921,VALID,226,VALID,0.5,
2009-05-14, 01:46:00,VALID,913.317,VALID,0,VALID,100,VALID,-0.0339617,VALID,19.0857,VALID,226,VALID,0.203835,
2009-05-14, 01:47:00,VALID,913.305,VALID,0,VALID,100,VALID,-0.0169808,VALID,19.0659,VALID,210,VALID,0.531436,
2009-05-14, 01:48:00,VALID,913.27,VALID,0,VALID,100,VALID,0,VALID,19.0465,VALID,209,VALID,0.510975,
2009-05-14, 01:49:00,VALID,913.244,VALID,0,VALID,100,VALID,-0.0339617,VALID,19.0275,VALID,210,VALID,0.544212,
2009-05-14, 01:50:00,VALID,913.212,VALID,0,VALID,100,VALID,0,VALID,19.0041,VALID,215,VALID,0.490371,
2009-05-14, 01:51:00,VALID,913.191,VALID,0,VALID,100,VALID,0,VALID,19.0018,VALID,233,VALID,0.687686,
2009-05-14, 01:52:00,VALID,913.16,VALID,0,VALID,100,VALID,0,VALID,19.0013,VALID,239,VALID,0.684201,
2009-05-14, 01:53:00,VALID,913.131,VALID,0,VALID,100,VALID,0.0169808,VALID,19.0011,VALID,234,VALID,0.764022,
2009-05-14, 01:54:00,VALID,913.109,VALID,0,VALID,100,VALID,-0.0169808,VALID,19.0113,VALID,236,VALID,0.790698,
2009-05-14, 01:55:00,VALID,913.107,VALID,0,VALID,100,VALID,0,VALID,19.0106,VALID,242,VALID,0.971413,
2009-05-14, 01:56:00,VALID,913.083,VALID,0,VALID,100,VALID,0.0169808,VALID,19.0203,VALID,244,VALID,0.802782,
2009-05-14, 01:57:00,VALID,913.081,VALID,0,VALID,100,VALID,0,VALID,19.0305,VALID,231,VALID,0.92702,
2009-05-14, 01:58:00,VALID,913.073,VALID,0,VALID,100,VALID,0,VALID,19.0235,VALID,226,VALID,0.680778,
2009-05-14, 01:59:00,VALID,913.069,VALID,0,VALID,100,VALID,0,VALID,19.0198,VALID,223,VALID,0.530887,
2009-05-14, 02:00:00,VALID,913.055,VALID,0,VALID,100,VALID,0,VALID,19.0338,VALID,238,VALID,0.175305,
2009-05-14, 02:01:00,VALID,913.033,VALID,0,VALID,100,VALID,0.0169808,VALID,19.0268,VALID,247,VALID,0.588956,
2009-05-14, 02:02:00,VALID,913.03,VALID,0,VALID,100,VALID,0.0339617,VALID,19.0305,VALID,256,VALID,0.7629,
2009-05-14, 02:03:00,VALID,913.01,VALID,0,VALID,100,VALID,-0.0169808,VALID,19.0205,VALID,261,VALID,0.842797,
2009-05-14, 02:04:00,VALID,912.99,VALID,0,VALID,100,VALID,0,VALID,19.027,VALID,263,VALID,0.630087,
2009-05-14, 02:05:00,VALID,913.001,VALID,0,VALID,100,VALID,0,VALID,19.0465,VALID,264,VALID,0.363281,
2009-05-14, 02:06:00,VALID,912.996,VALID,0,VALID,100,VALID,-0.0169808,VALID,19.0527,VALID,256,VALID,0.689135,
2009-05-14, 02:07:00,VALID,912.987,VALID,0,VALID,100,VALID,0,VALID,19.0425,VALID,255,VALID,0.745999,
2009-05-14, 02:08:00,VALID,912.974,VALID,0,VALID,100,VALID,0,VALID,19.047,VALID,261,VALID,0.53125,
2009-05-14, 02:09:00,VALID,912.964,VALID,0,VALID,100,VALID,-0.0679233,VALID,19.0377,VALID,261,VALID,0.390253,
2009-05-14, 02:10:00,VALID,912.96,VALID,0,VALID,100,VALID,-0.0679233,VALID,19.0444,VALID,261,VALID,0.387429,
2009-05-14, 02:11:00,VALID,912.936,VALID,0,VALID,100,VALID,-0.0849042,VALID,19.0315,VALID,258,VALID,0.382617,
2009-05-14, 02:12:00,VALID,912.924,VALID,0,VALID,100,VALID,-0.135847,VALID,19.0085,VALID,240,VALID,0.518293,
2009-05-14, 02:13:00,VALID,912.923,VALID,0,VALID,100,VALID,-0.101885,VALID,19.006,VALID,247,VALID,0.501172,
2009-05-14, 02:14:00,VALID,912.908,VALID,0,VALID,100,VALID,-0.101885,VALID,18.9861,VALID,260,VALID,0.967507,
2009-05-14, 02:15:00,VALID,912.867,VALID,0,VALID,100,VALID,-0.0679233,VALID,18.9993,VALID,248,VALID,0.787202,
2009-05-14, 02:16:00,VALID,912.833,VALID,0,VALID,100,VALID,-0.0679233,VALID,19.0023,VALID,224,VALID,0.707485,
2009-05-14, 02:17:00,VALID,912.808,VALID,0,VALID,100,VALID,-0.0509425,VALID,19.0023,VALID,233,VALID,0.730741,
2009-05-14, 02:18:00,VALID,912.768,VALID,0,VALID,100,VALID,-0.0339617,VALID,18.9856,VALID,228,VALID,0.315476,
2009-05-14, 02:19:00,VALID,912.754,VALID,0,VALID,100,VALID,-0.101885,VALID,18.9726,VALID,241,VALID,0.361607,
2009-05-14, 02:20:00,VALID,912.731,VALID,0,VALID,100,VALID,-0.101885,VALID,18.9664,VALID,239,VALID,0.152166,
2009-05-14, 02:21:00,VALID,912.733,VALID,0,VALID,100,VALID,-0.0679233,VALID,18.9369,VALID,249,VALID,0.353795,
2009-05-14, 02:22:00,VALID,912.729,VALID,0,VALID,100,VALID,-0.0849042,VALID,18.911,VALID,260,VALID,0.325586,
2009-05-14, 02:23:00,VALID,912.707,VALID,0,VALID,100,VALID,-0.101885,VALID,18.9501,VALID,258,VALID,0,
2009-05-14, 02:24:00,VALID,912.707,VALID,0,VALID,100,VALID,-0.0849042,VALID,18.9636,VALID,286,VALID,0,
2009-05-14, 02:25:00,VALID,912.682,VALID,0,VALID,100,VALID,-0.0679233,VALID,18.9696,VALID,289,VALID,0,
2009-05-14, 02:26:00,VALID,912.669,VALID,0,VALID,100,VALID,-0.0679233,VALID,18.9696,VALID,293,VALID,0,
2009-05-14, 02:27:00,VALID,912.646,VALID,0,VALID,100,VALID,-0.0849042,VALID,18.9469,VALID,283,VALID,0,
2009-05-14, 02:28:00,VALID,912.64,VALID,0,VALID,100,VALID,-0.0339617,VALID,18.9402,VALID,281,VALID,0,
2009-05-14, 02:29:00,VALID,912.622,VALID,0,VALID,100,VALID,-0.0849042,VALID,18.9369,VALID,268,VALID,0,
2009-05-14, 02:30:00,VALID,912.607,VALID,0,VALID,100,VALID,-0.0849042,VALID,18.9436,VALID,269,VALID,0,
2009-05-14, 02:31:00,VALID,912.596,VALID,0,VALID,100,VALID,-0.0849042,VALID,18.9337,VALID,266,VALID,0,
2009-05-14, 02:32:00,VALID,912.575,VALID,0,VALID,100,VALID,-0.0849042,VALID,18.9179,VALID,264,VALID,0,
2009-05-14, 02:33:00,VALID,912.559,VALID,0,VALID,100,VALID,-0.101885,VALID,18.8688,VALID,212,VALID,0,
2009-05-14, 02:34:00,VALID,912.556,VALID,0,VALID,100,VALID,-0.0849042,VALID,18.8301,VALID,199,VALID,0,
2009-05-14, 02:35:00,VALID,912.549,VALID,0,VALID,100,VALID,-0.0679233,VALID,18.8044,VALID,181,VALID,0,
2009-05-14, 02:36:00,VALID,912.542,VALID,0,VALID,100,VALID,-0.0679233,VALID,18.7715,VALID,148,VALID,0,
2009-05-14, 02:37:00,VALID,912.515,VALID,0,VALID,100,VALID,-0.0339617,VALID,18.739,VALID,171,VALID,0,
2009-05-14, 02:38:00,VALID,912.52,VALID,0,VALID,100,VALID,-0.0849042,VALID,18.7268,VALID,171,VALID,0,
2009-05-14, 02:39:00,VALID,912.511,VALID,0,VALID,100,VALID,-0.0849042,VALID,18.6976,VALID,171,VALID,0,
2009-05-14, 02:40:00,VALID,912.493,VALID,0,VALID,100,VALID,-0.101885,VALID,18.6879,VALID,162,VALID,0,
2009-05-14, 02:41:00,VALID,912.477,VALID,0,VALID,100,VALID,-0.101885,VALID,18.6881,VALID,155,VALID,0,
2009-05-14, 02:42:00,VALID,912.478,VALID,0,VALID,100,VALID,-0.101885,VALID,18.6846,VALID,154,VALID,0,
2009-05-14, 02:43:00,VALID,912.44,VALID,0,VALID,100,VALID,-0.101885,VALID,18.6876,VALID,154,VALID,0,
2009-05-14, 02:44:00,VALID,912.423,VALID,0,VALID,100,VALID,-0.118866,VALID,18.6786,VALID,154,VALID,0,
2009-05-14, 02:45:00,VALID,912.388,VALID,0,VALID,100,VALID,-0.0679233,VALID,18.6649,VALID,166,VALID,0,
2009-05-14, 02:46:00,VALID,912.372,VALID,0,VALID,100,VALID,-0.101885,VALID,18.6589,VALID,173,VALID,0,
2009-05-14, 02:47:00,VALID,912.355,VALID,0,VALID,100,VALID,-0.118866,VALID,18.6559,VALID,175,VALID,0,
2009-05-14, 02:48:00,VALID,912.344,VALID,0,VALID,100,VALID,-0.118866,VALID,18.6561,VALID,174,VALID,0,
2009-05-14, 02:49:00,VALID,912.35,VALID,0,VALID,100,VALID,-0.0849042,VALID,18.6524,VALID,173,VALID,0,
2009-05-14, 02:50:00,VALID,912.346,VALID,0,VALID,100,VALID,-0.118866,VALID,18.6689,VALID,168,VALID,0,
2009-05-14, 02:51:00,VALID,912.358,VALID,0,VALID,100,VALID,-0.0849042,VALID,18.6721,VALID,166,VALID,0,
2009-05-14, 02:52:00,VALID,912.36,VALID,0,VALID,100,VALID,0,VALID,18.6707,VALID,166,VALID,0,
2009-05-14, 02:53:00,VALID,912.363,VALID,0,VALID,100,VALID,-0.0169808,VALID,18.6737,VALID,166,VALID,0,
2009-05-14, 02:54:00,VALID,912.362,VALID,0,VALID,100,VALID,0,VALID,18.6837,VALID,166,VALID,0,
2009-05-14, 02:55:00,VALID,912.342,VALID,0,VALID,100,VALID,-0.0169808,VALID,18.6575,VALID,159,VALID,0,
2009-05-14, 02:56:00,VALID,912.329,VALID,0,VALID,100,VALID,0,VALID,18.632,VALID,149,VALID,0,
2009-05-14, 02:57:00,VALID,912.319,VALID,0,VALID,100,VALID,0.0169808,VALID,18.6118,VALID,149,VALID,0,
2009-05-14, 02:58:00,VALID,912.334,VALID,0,VALID,100,VALID,-0.0169808,VALID,18.5991,VALID,149,VALID,0,
2009-05-14, 02:59:00,VALID,912.344,VALID,0,VALID,100,VALID,0,VALID,18.5954,VALID,149,VALID,0,
2009-05-14, 03:00:00,VALID,912.335,VALID,0,VALID,100,VALID,0.0339617,VALID,18.6058,VALID,149,VALID,0,
2009-05-14, 03:01:00,VALID,912.338,VALID,0,VALID,100,VALID,0.0169808,VALID,18.6061,VALID,149,VALID,0,
2009-05-14, 03:02:00,VALID,912.331,VALID,0,VALID,100,VALID,0,VALID,18.5954,VALID,149,VALID,0,
2009-05-14, 03:03:00,VALID,912.326,VALID,0,VALID,100,VALID,0.0169808,VALID,18.6088,VALID,149,VALID,0,
2009-05-14, 03:04:00,VALID,912.31,VALID,0,VALID,100,VALID,-0.0169808,VALID,18.6121,VALID,149,VALID,0,
2009-05-14, 03:05:00,VALID,912.304,VALID,0,VALID,100,VALID,0.0169808,VALID,18.6058,VALID,149,VALID,0,
2009-05-14, 03:06:00,VALID,912.296,VALID,0,VALID,100,VALID,0,VALID,18.5929,VALID,149,VALID,0,
2009-05-14, 03:07:00,VALID,912.292,VALID,0,VALID,100,VALID,0,VALID,18.5699,VALID,149,VALID,0,
2009-05-14, 03:08:00,VALID,912.29,VALID,0,VALID,100,VALID,0,VALID,18.5502,VALID,149,VALID,0,
2009-05-14, 03:09:00,VALID,912.281,VALID,0,VALID,100,VALID,0,VALID,18.528,VALID,149,VALID,0,
2009-05-14, 03:10:00,VALID,912.288,VALID,0,VALID,100,VALID,0,VALID,18.4951,VALID,149,VALID,0,
2009-05-14, 03:11:00,VALID,912.278,VALID,0,VALID,100,VALID,0.0169808,VALID,18.4953,VALID,149,VALID,0,
2009-05-14, 03:12:00,VALID,912.288,VALID,0,VALID,100,VALID,0,VALID,18.4956,VALID,149,VALID,0,
2009-05-14, 03:13:00,VALID,912.275,VALID,0,VALID,100,VALID,0,VALID,18.4821,VALID,149,VALID,0,
2009-05-14, 03:14:00,VALID,912.273,VALID,0,VALID,100,VALID,0.0169808,VALID,18.4497,VALID,149,VALID,0,
2009-05-14, 03:15:00,VALID,912.254,VALID,0,VALID,100,VALID,0.0509425,VALID,18.4013,VALID,149,VALID,0,
2009-05-14, 03:16:00,VALID,912.244,VALID,0,VALID,100,VALID,0,VALID,18.3561,VALID,149,VALID,0,
2009-05-14, 03:17:00,VALID,912.241,VALID,0,VALID,100,VALID,0.0169808,VALID,18.3165,VALID,149,VALID,0,
2009-05-14, 03:18:00,VALID,912.233,VALID,0,VALID,100,VALID,-0.0169808,VALID,18.3012,VALID,149,VALID,0,
2009-05-14, 03:19:00,VALID,912.235,VALID,0,VALID,100,VALID,-0.0169808,VALID,18.2748,VALID,149,VALID,0,
2009-05-14, 03:20:00,VALID,912.232,VALID,0,VALID,100,VALID,0,VALID,18.2623,VALID,149,VALID,0,
2009-05-14, 03:21:00,VALID,912.249,VALID,0,VALID,100,VALID,0.0169808,VALID,18.2648,VALID,149,VALID,0,
2009-05-14, 03:22:00,VALID,912.266,VALID,0,VALID,100,VALID,0,VALID,18.2521,VALID,135,VALID,0,
2009-05-14, 03:23:00,VALID,912.27,VALID,0,VALID,100,VALID,0,VALID,18.2166,VALID,132,VALID,0,
2009-05-14, 03:24:00,VALID,912.282,VALID,0,VALID,100,VALID,0.0169808,VALID,18.19,VALID,22,VALID,0,
2009-05-14, 03:25:00,VALID,912.267,VALID,0,VALID,100,VALID,0,VALID,18.2064,VALID,6,VALID,0,
2009-05-14, 03:26:00,VALID,912.283,VALID,0,VALID,100,VALID,0.0169808,VALID,18.1833,VALID,8,VALID,0,
2009-05-14, 03:27:00,VALID,912.301,VALID,0,VALID,100,VALID,0,VALID,18.1636,VALID,11,VALID,0,
2009-05-14, 03:28:00,VALID,912.313,VALID,0,VALID,100,VALID,0.0169808,VALID,18.1578,VALID,14,VALID,0,
2009-05-14, 03:29:00,VALID,912.318,VALID,0,VALID,100,VALID,0.0339617,VALID,18.1604,VALID,17,VALID,0,
2009-05-14, 03:30:00,VALID,912.298,VALID,0,VALID,100,VALID,0,VALID,18.1763,VALID,15,VALID,0.596799,
2009-05-14, 03:31:00,VALID,912.306,VALID,0,VALID,100,VALID,0.0339617,VALID,18.2386,VALID,11,VALID,1.73183,
2009-05-14, 03:32:00,VALID,912.299,VALID,0,VALID,100,VALID,0,VALID,18.2938,VALID,15,VALID,1.23628,
2009-05-14, 03:33:00,VALID,912.307,VALID,0,VALID,100,VALID,0.0169808,VALID,18.2968,VALID,15,VALID,0.508507,
2009-05-14, 03:34:00,VALID,912.32,VALID,0,VALID,100,VALID,0,VALID,18.294,VALID,1,VALID,0.521532,
2009-05-14, 03:35:00,VALID,912.332,VALID,0,VALID,100,VALID,0.0509425,VALID,18.3292,VALID,352,VALID,0.949023,
2009-05-14, 03:36:00,VALID,912.367,VALID,0,VALID,100,VALID,0,VALID,18.3714,VALID,3,VALID,0.567708,
2009-05-14, 03:37:00,VALID,912.382,VALID,0,VALID,100,VALID,0.0169808,VALID,18.3846,VALID,359,VALID,0,
2009-05-14, 03:38:00,VALID,912.395,VALID,0,VALID,100,VALID,0,VALID,18.3878,VALID,359,VALID,0,
2009-05-14, 03:39:00,VALID,912.387,VALID,0,VALID,100,VALID,0,VALID,18.424,VALID,359,VALID,0,
2009-05-14, 03:40:00,VALID,912.389,VALID,0,VALID,100,VALID,0.0169808,VALID,18.433,VALID,359,VALID,0,
2009-05-14, 03:41:00,VALID,912.403,VALID,0,VALID,100,VALID,0.0169808,VALID,18.436,VALID,359,VALID,0,
2009-05-14, 03:42:00,VALID,912.412,VALID,0,VALID,100,VALID,0,VALID,18.4654,VALID,359,VALID,0,
2009-05-14, 03:43:00,VALID,912.431,VALID,0,VALID,100,VALID,0,VALID,18.4687,VALID,359,VALID,0,
2009-05-14, 03:44:00,VALID,912.463,VALID,0,VALID,100,VALID,0,VALID,18.443,VALID,18,VALID,0,
2009-05-14, 03:45:00,VALID,912.499,VALID,0,VALID,100,VALID,0,VALID,18.4172,VALID,23,VALID,0,
2009-05-14, 03:46:00,VALID,912.509,VALID,0,VALID,100,VALID,0,VALID,18.401,VALID,23,VALID,0,